Location: Braunsdorf
(50.7357°N, 11.9136°E)
Time: 07:33:30
(UTC+00:00)

NOSS 2-1 (C) - Pass Details

Date: 17 February 2020
Orbit: 450 x 1753 km, 63.3° (Epoch: 28 March)

Event Time Altitude Azimuth Distance (km) Brightness Sun altitude
Exits shadow 04:12:34 88° 246° (WSW) 478 2.8 -21.1°
Maximum altitude 04:12:36 89° 301° (WNW) 478 2.9 -21.0°
Drops below altitude 10° 04:16:26 10° 44° (NE) 1,782 6.6 -20.4°
Sets 04:18:50 0° 45° (NE) 2,811 7.7 -20.1°
